CW3518 Weather Reports


time (UTC)temp
C
wind
direction
speed
KPH
gust
KPH
rain 1hr
cm
rain 24hr
cm
rain mn
cm
humidity
%
barometer
mb
20260903210021 32 119 29.0 32.2 0.00 0.00 0.00 62 1011.1
20260903205521 31 140 19.3 32.2 0.00 0.00 0.00 63 1011.2
20260903204521 32 141 17.7 25.7 0.00 0.00 0.00 61 1011.3
20260903204021 32 120 16.1 22.5 0.00 0.00 0.00 61 1011.3
20260903203520 32 175 16.1 29.0 0.00 0.00 0.00 62 1011.4
20260903203020 32 142 17.7 29.0 0.00 0.00 0.00 62 1011.5
20260903202020 32 126 12.9 32.2 0.00 0.00 0.00 61 1011.5
20260903201020 32 160 17.7 33.8 0.00 0.00 0.00 60 1011.5
20260903200520 32 119 25.7 33.8 0.00 0.00 0.00 61 1011.5
20260903195520 33 157 16.1 27.4 0.00 0.00 0.00 57 1011.7
20260903195020 32 165 17.7 25.7 0.00 0.00 0.00 57 1011.8
20260903194520 32 164 24.1 24.1 0.00 0.00 0.00 57 1011.8
20260903194020 32 142 19.3 24.1 0.00 0.00 0.00 58 1011.9
20260903193520 32 147 16.1 27.4 0.00 0.00 0.00 57 1011.9
20260903193020 32 153 16.1 27.4 0.00 0.00 0.00 58 1012.0
20260903192520 32 121 11.3 27.4 0.00 0.00 0.00 56 1012.1
20260903192020 32 193 9.7 25.7 0.00 0.00 0.00 59 1012.2
20260903191520 32 164 19.3 27.4 0.00 0.00 0.00 60 1012.3
20260903191020 32 145 17.7 27.4 0.00 0.00 0.00 61 1012.4
20260903190520 31 173 11.3 24.1 0.00 0.00 0.00 61 1012.5
20260903190020 31 131 14.5 24.1 0.00 0.00 0.00 61 1012.6
20260903185521 31 171 19.3 29.0 0.00 0.00 0.00 61 1012.7
20260903185019 31 182 12.9 29.0 0.00 0.00 0.00 61 1012.8
20260903184520 31 131 8.0 35.4 0.00 0.00 0.00 62 1012.8
20260903184019 31 160 22.5 35.4 0.00 0.00 0.00 61 1012.9
20260903183519 31 131 20.9 32.2 0.00 0.00 0.00 61 1012.9
20260903183020 31 145 11.3 32.2 0.00 0.00 0.00 62 1013.0
20260903182519 32 139 19.3 32.2 0.00 0.00 0.00 62 1013.0
20260903182019 31 119 17.7 32.2 0.00 0.00 0.00 64 1013.1
20260903181519 31 129 16.1 29.0 0.00 0.00 0.00 63 1013.2
20260903181019 31 142 17.7 32.2 0.00 0.00 0.00 64 1013.2
20260903180519 31 0 0.0 32.2 0.00 0.00 0.00 65 1013.1
20260903175519 31 158 19.3 27.4 0.00 0.00 0.00 64 1013.3
20260903175019 31 158 20.9 25.7 0.00 0.00 0.00 64 1013.4
20260903174519 30 130 24.1 24.1 0.00 0.00 0.00 65 1013.4
20260903174019 30 176 14.5 27.4 0.00 0.00 0.00 66 1013.5
20260903173519 30 140 16.1 30.6 0.00 0.00 0.00 66 1013.5
20260903173019 30 119 22.5 30.6 0.00 0.00 0.00 66 1013.6
20260903172519 30 172 25.7 27.4 0.00 0.00 0.00 67 1013.6
20260903172018 30 111 24.1 27.4 0.00 0.00 0.00 65 1013.6
20260903171518 30 162 17.7 29.0 0.00 0.00 0.00 66 1013.7
20260903171018 30 130 20.9 32.2 0.00 0.00 0.00 66 1013.7
20260903170518 30 158 20.9 32.2 0.00 0.00 0.00 67 1013.7
20260903170018 30 157 20.9 24.1 0.00 0.00 0.00 68 1013.8
20260903164518 30 135 14.5 24.1 0.00 0.00 0.00 68 1013.9
20260903164019 30 163 17.7 25.7 0.00 0.00 0.00 66 1013.8
20260903163518 30 185 9.7 25.7 0.00 0.00 0.00 67 1013.9
20260903162518 30 128 24.1 24.1 0.00 0.00 0.00 67 1013.9
20260903162018 30 107 17.7 22.5 0.00 0.00 0.00 68 1014.0
20260903161018 28 165 6.4 25.7 0.00 0.00 0.00 70 1014.0
20260903160518 29 168 12.9 25.7 0.00 0.00 0.00 70 1014.0
20260903160018 29 156 20.9 25.7 0.00 0.00 0.00 69 1014.0
20260903155518 29 140 11.3 24.1 0.00 0.00 0.00 71 1014.0
20260903155018 28 161 12.9 22.5 0.00 0.00 0.00 71 1014.0
20260903154517 28 144 12.9 24.1 0.00 0.00 0.00 72 1014.0
20260903154017 28 158 16.1 24.1 0.00 0.00 0.00 73 1013.9
20260903153517 28 148 22.5 22.5 0.00 0.00 0.00 75 1013.9
20260903153018 28 157 22.5 22.5 0.00 0.00 0.00 74 1013.9
20260903152517 27 0 0.0 22.5 0.00 0.00 0.00 75 1013.9
20260903151517 27 128 12.9 27.4 0.00 0.00 0.00 75 1014.0
20260903151018 27 162 17.7 27.4 0.00 0.00 0.00 75 1013.9
20260903150517 28 107 20.9 25.7 0.00 0.00 0.00 74 1013.9
20260903150017 27 117 19.3 24.1 0.00 0.00 0.00 74 1014.0
20260903145517 27 124 17.7 25.7 0.00 0.00 0.00 74 1014.0
20260903145017 27 123 19.3 25.7 0.00 0.00 0.00 74 1014.0
20260903144517 27 111 20.9 24.1 0.00 0.00 0.00 74 1014.1
20260903144017 27 0 0.0 24.1 0.00 0.00 0.00 74 1014.0
20260903143517 27 112 12.9 24.1 0.00 0.00 0.00 75 1014.1
20260903143017 27 0 0.0 24.1 0.00 0.00 0.00 75 1014.0
20260903142517 27 118 14.5 22.5 0.00 0.00 0.00 75 1014.0
20260903142016 27 141 14.5 20.9 0.00 0.00 0.00 76 1013.9
20260903141516 27 126 12.9 17.7 0.00 0.00 0.00 76 1014.0
20260903141016 27 121 14.5 17.7 0.00 0.00 0.00 77 1014.0
20260903140517 27 114 9.7 17.7 0.00 0.00 0.00 77 1014.0
20260903140016 26 115 11.3 16.1 0.00 0.00 0.00 79 1014.1
20260903135516 26 142 11.3 17.7 0.00 0.00 0.00 80 1014.1
20260903135016 26 93 12.9 20.9 0.00 0.00 0.00 82 1014.1
20260903134016 26 76 17.7 20.9 0.00 0.00 0.00 84 1014.0
20260903133516 26 87 12.9 17.7 0.00 0.00 0.00 84 1014.1
20260903133016 26 95 11.3 16.1 0.00 0.00 0.00 86 1014.1
20260903132516 25 84 14.5 22.5 0.00 0.00 0.00 87 1014.1
20260903132016 25 91 12.9 22.5 0.00 0.00 0.00 88 1014.1
20260903131015 25 105 14.5 17.7 0.00 0.00 0.00 89 1014.2
20260903130517 25 84 14.5 17.7 0.00 0.00 0.00 89 1014.2
20260903130016 25 76 12.9 12.9 0.00 0.00 0.00 87 1014.2
20260903125015 24 91 11.3 11.3 0.00 0.00 0.00 88 1014.2
20260903124515 24 94 8.0 9.7 0.00 0.00 0.00 88 1014.0
20260903124016 24 93 6.4 9.7 0.00 0.00 0.00 88 1013.9
20260903123515 24 90 4.8 6.4 0.00 0.00 0.00 88 1013.7
20260903123015 23 68 3.2 8.0 0.00 0.00 0.00 89 1013.6
20260903121515 24 104 11.3 12.9 0.00 0.00 0.00 88 1013.7
20260903121015 25 117 4.8 4.8 0.00 0.00 0.00 86 1013.6
20260903120015 24 222 3.2 4.8 0.00 0.00 0.00 87 1013.5
20260903115515 24 126 1.6 6.4 0.00 0.00 0.00 88 1013.5
20260903115015 24 18 3.2 6.4 0.00 0.00 0.00 88 1013.4
20260903114515 24 34 4.8 8.0 0.00 0.00 0.00 88 1013.4
20260903114015 24 36 8.0 8.0 0.00 0.00 0.00 88 1013.4
20260903113515 24 81 4.8 9.7 0.00 0.00 0.00 87 1013.5
20260903113015 24 115 6.4 11.3 0.00 0.00 0.00 88 1013.6
20260903112515 24 105 8.0 11.3 0.00 0.00 0.00 88 1013.6
20260903111515 24 97 8.0 8.0 0.00 0.00 0.00 88 1013.5
20260903111015 24 84 8.0 8.0 0.00 0.00 0.00 88 1013.5
20260903110515 24 84 4.8 8.0 0.00 0.00 0.00 88 1013.5
20260903110014 24 84 4.8 9.7 0.00 0.00 0.00 88 1013.4
20260903105515 24 107 8.0 11.3 0.00 0.00 0.00 87 1013.4
20260903104515 24 99 8.0 12.9 0.00 0.00 0.00 87 1013.3
20260903104014 25 104 11.3 12.9 0.00 0.00 0.00 87 1013.3
20260903103515 25 103 9.7 14.5 0.00 0.00 0.00 86 1013.3
20260903102514 24 106 9.7 11.3 0.00 0.00 0.00 87 1013.4
20260903102044 24 86 6.4 6.4 0.00 0.00 0.00 86 1013.4
20260903101514 24 74 4.8 8.0 0.00 0.00 0.00 86 1013.5
20260903101014 25 90 6.4 9.7 0.00 0.00 0.00 85 1013.4
20260903100014 25 98 8.0 8.0 0.00 0.00 0.00 85 1013.5
20260903095014 24 101 6.4 6.4 0.00 0.00 0.00 86 1013.5
20260903094514 24 104 4.8 6.4 0.00 0.00 0.00 86 1013.4
20260903094014 24 45 6.4 6.4 0.00 0.00 0.00 86 1013.4
20260903093513 24 93 4.8 6.4 0.00 0.00 0.00 86 1013.3
20260903092513 24 180 3.2 4.8 0.00 0.00 0.00 86 1013.4
20260903092013 24 242 3.2 8.0 0.00 0.00 0.00 86 1013.4
20260903091513 24 246 8.0 8.0 0.00 0.00 0.00 86 1013.4
20260903090013 24 100 9.7 11.3 0.00 0.00 0.00 86 1013.3
20260903085513 24 85 8.0 11.3 0.00 0.00 0.00 85 1013.2
20260903084513 25 79 8.0 11.3 0.00 0.00 0.00 85 1013.2
20260903084013 25 86 8.0 11.3 0.00 0.00 0.00 84 1013.2
20260903083513 25 87 8.0 14.5 0.00 0.00 0.00 84 1013.2
20260903083013 25 83 11.3 16.1 0.00 0.00 0.00 84 1013.2
20260903082513 25 100 14.5 16.1 0.00 0.00 0.00 84 1013.3
20260903081513 25 93 11.3 14.5 0.00 0.00 0.00 82 1013.4
20260903080512 25 90 6.4 9.7 0.00 0.00 0.00 82 1013.4
20260903080012 25 89 8.0 9.7 0.00 0.00 0.00 82 1013.4
20260903075512 25 77 8.0 9.7 0.00 0.00 0.00 81 1013.3
20260903075012 25 99 8.0 12.9 0.00 0.00 0.00 81 1013.3
20260903074013 25 94 11.3 11.3 0.00 0.00 0.00 80 1013.3
20260903073013 25 102 11.3 11.3 0.00 0.00 0.00 80 1013.4
20260903072512 25 97 9.7 11.3 0.00 0.00 0.00 80 1013.3
20260903072012 25 98 6.4 12.9 0.00 0.00 0.00 79 1013.4
20260903071012 26 90 11.3 16.1 0.00 0.00 0.00 78 1013.5
20260903070512 26 97 11.3 16.1 0.00 0.00 0.00 78 1013.5
20260903065512 26 108 14.5 16.1 0.00 0.00 0.00 77 1013.6
20260903065012 26 118 16.1 19.3 0.00 0.00 0.00 76 1013.6
20260903064512 26 103 14.5 19.3 0.00 0.00 0.00 76 1013.6
20260903064012 26 116 14.5 22.5 0.00 0.00 0.00 75 1013.7
20260903063512 26 108 16.1 24.1 0.00 0.00 0.00 74 1013.7
20260903063012 27 105 17.7 24.1 0.00 0.00 0.00 74 1013.7
20260903062512 27 109 17.7 24.1 0.00 0.00 0.00 73 1013.8
20260903061511 27 124 16.1 17.7 0.00 0.00 0.00 71 1013.9
20260903060511 27 107 11.3 17.7 0.00 0.00 0.00 70 1013.9
20260903060011 27 111 11.3 20.9 0.00 0.00 0.00 69 1013.9
20260903055512 27 111 14.5 20.9 0.00 0.00 0.00 69 1013.9
20260903055011 27 113 12.9 19.3 0.00 0.00 0.00 68 1013.9
20260903054512 27 110 14.5 17.7 0.00 0.00 0.00 68 1013.9
20260903054011 27 110 17.7 17.7 0.00 0.00 0.00 67 1013.9
20260903053511 27 106 12.9 17.7 0.00 0.00 0.00 67 1013.9
20260903053012 27 111 12.9 19.3 0.00 0.00 0.00 66 1013.9
20260903052511 28 106 14.5 20.9 0.00 0.00 0.00 66 1013.9
20260903051511 28 103 14.5 20.9 0.00 0.00 0.00 66 1013.8
20260903051011 28 104 16.1 17.7 0.00 0.00 0.00 66 1013.9
20260903050511 28 102 12.9 16.1 0.00 0.00 0.00 65 1013.9
20260903050011 28 104 14.5 19.3 0.00 0.00 0.00 65 1013.9
20260903045511 28 109 16.1 19.3 0.00 0.00 0.00 64 1013.9
20260903045011 28 120 12.9 19.3 0.00 0.00 0.00 64 1013.7
20260903044511 28 124 12.9 22.5 0.00 0.00 0.00 63 1013.7
20260903044011 28 124 14.5 27.4 0.00 0.00 0.00 63 1013.7
20260903043010 29 127 16.1 27.4 0.00 0.00 0.00 63 1013.7
20260903042511 29 118 22.5 27.4 0.00 0.00 0.00 62 1013.6
20260903042010 29 118 25.7 29.0 0.00 0.00 0.00 62 1013.6
20260903041010 30 116 24.1 29.0 0.00 0.00 0.00 60 1013.7
20260903040510 30 117 20.9 30.6 0.00 0.00 0.00 59 1013.6
20260903040010 30 119 22.5 30.6 0.00 0.00 0.00 58 1013.6
20260903035510 30 119 24.1 30.6 0.00 0.00 0.00 57 1013.5
20260903035010 30 118 17.7 29.0 0.00 0.00 0.00 56 1013.6
20260903034510 31 0 0.0 27.4 0.00 0.00 0.00 55 1013.6
20260903033510 31 117 16.1 27.4 0.00 0.00 0.00 53 1013.5
20260903033010 31 117 17.7 30.6 0.00 0.00 0.00 53 1013.5
20260903032510 31 117 20.9 30.6 0.00 0.00 0.00 52 1013.5
20260903032010 31 116 17.7 29.0 0.00 0.00 0.00 52 1013.4
20260903031510 31 117 16.1 29.0 0.00 0.00 0.00 52 1013.5
20260903030509 31 108 11.3 24.1 0.00 0.00 0.00 53 1013.4
20260903030010 31 117 14.5 24.1 0.00 0.00 0.00 53 1013.3
20260903025010 31 109 11.3 19.3 0.00 0.00 0.00 53 1013.2
20260903024509 31 114 19.3 19.3 0.00 0.00 0.00 53 1013.2
20260903024009 31 109 12.9 17.7 0.00 0.00 0.00 53 1013.1
20260903023509 31 96 14.5 17.7 0.00 0.00 0.00 52 1013.1
20260903022510 31 107 11.3 16.1 0.00 0.00 0.00 52 1013.0
20260903022009 31 113 12.9 16.1 0.00 0.00 0.00 52 1012.9
20260903021509 32 104 11.3 14.5 0.00 0.00 0.00 51 1013.0
20260903021009 32 101 14.5 17.7 0.00 0.00 0.00 51 1012.9
20260903020509 32 113 12.9 19.3 0.00 0.00 0.00 51 1012.8
20260903020009 32 115 14.5 19.3 0.00 0.00 0.00 51 1012.7
20260903015509 32 120 12.9 17.7 0.00 0.00 0.00 51 1012.6
20260903015009 32 111 12.9 17.7 0.00 0.00 0.00 51 1012.5
20260903014509 32 123 16.1 20.9 0.00 0.00 0.00 50 1012.4
20260903014009 32 122 14.5 20.9 0.00 0.00 0.00 49 1012.4
20260903013009 32 114 17.7 27.4 0.00 0.00 0.00 47 1012.3
20260903012509 33 105 17.7 29.0 0.00 0.00 0.00 46 1012.2
20260903012010 33 109 14.5 29.0 0.00 0.00 0.00 45 1012.1
20260903011509 33 104 14.5 17.7 0.00 0.00 0.00 44 1012.1
20260903011009 33 92 12.9 20.9 0.00 0.00 0.00 43 1012.1
20260903010508 33 95 12.9 22.5 0.00 0.00 0.00 43 1012.0
20260903010008 33 89 17.7 22.5 0.00 0.00 0.00 43 1011.9
20260903005508 33 103 16.1 22.5 0.00 0.00 0.00 42 1012.0
20260903005008 33 107 11.3 22.5 0.00 0.00 0.00 41 1012.0
20260903004508 34 95 12.9 24.1 0.00 0.00 0.00 41 1011.9
20260903004008 34 95 14.5 24.1 0.00 0.00 0.00 41 1011.9
20260903003508 34 96 17.7 30.6 0.00 0.00 0.00 40 1011.9
20260903003008 35 116 20.9 30.6 0.00 0.00 0.00 40 1011.8
20260903002509 35 98 22.5 25.7 0.00 0.00 0.00 40 1011.8
20260903001508 35 94 16.1 22.5 0.00 0.00 0.00 40 1011.9
20260903001008 35 90 16.1 22.5 0.00 0.00 0.00 40 1011.9
20260903000511 35 111 20.9 24.1 0.00 0.00 0.00 39 1011.8
20260903000008 35 111 19.3 25.7 0.00 0.00 0.00 39 1011.8
20260902235508 35 109 16.1 25.7 0.00 0.00 0.00 39 1011.8
20260902235008 35 91 12.9 27.4 0.00 0.00 0.00 39 1011.9
20260902234508 35 108 19.3 27.4 0.00 0.00 0.00 39 1011.8
20260902234008 35 82 14.5 29.0 0.00 0.00 0.00 39 1011.9
20260902233008 35 75 24.1 29.0 0.00 0.00 0.00 38 1011.8
20260902232508 35 84 24.1 29.0 0.00 0.00 0.00 39 1011.7
20260902231007 35 63 22.5 30.6 0.00 0.00 0.00 39 1011.7
20260902230507 35 76 19.3 25.7 0.00 0.00 0.00 39 1011.8
20260902230007 35 100 17.7 27.4 0.00 0.00 0.00 38 1011.8
20260902225507 35 85 17.7 35.4 0.00 0.00 0.00 39 1011.9
20260902225007 35 72 16.1 35.4 0.00 0.00 0.00 39 1011.9
20260902224007 36 83 20.9 32.2 0.00 0.00 0.00 39 1011.9
20260902223507 35 103 19.3 32.2 0.00 0.00 0.00 39 1012.0
20260902223007 35 68 16.1 29.0 0.00 0.00 0.00 39 1012.0
20260902222507 35 67 17.7 37.0 0.00 0.00 0.00 39 1012.1
20260902222007 35 99 24.1 37.0 0.00 0.00 0.00 39 1012.0
20260902221507 35 55 32.2 32.2 0.00 0.00 0.00 38 1012.0
20260902221007 36 84 20.9 20.9 0.00 0.00 0.00 37 1012.2
20260902220506 36 108 9.7 24.1 0.00 0.00 0.00 38 1012.3
20260902220006 35 93 3.2 29.0 0.00 0.00 0.00 38 1012.3
20260902215506 35 76 14.5 29.0 0.00 0.00 0.00 38 1012.4
20260902215006 35 96 11.3 25.7 0.00 0.00 0.00 38 1012.4
20260902214006 35 66 20.9 32.2 0.00 0.00 0.00 37 1012.5
20260902213006 35 82 19.3 27.4 0.00 0.00 0.00 38 1012.5
20260902212506 35 88 20.9 27.4 0.00 0.00 0.00 39 1012.5
20260902212006 35 92 24.1 33.8 0.00 0.00 0.00 39 1012.6
20260902211506 35 71 17.7 33.8 0.00 0.00 0.00 40 1012.7
20260902211006 35 31 20.9 27.4 0.00 0.00 0.00 39 1012.7
20260902210506 35 95 20.9 27.4 0.00 0.00 0.00 39 1012.7